Satellite: AAUSAT2
Catalog number: 32788
Epoch time:      09113.84299413
Element set:     339
Inclination:      097.9477 deg
RA of node:       178.1667 deg
Eccentricity:    0.0014612
Arg of perigee:   205.8474 deg
Mean anomaly:     154.1964 deg
Mean motion:   14.81703789 rev/day
Decay rate:       -8.5e-07 rev/day^2
Epoch rev:            5340
Checksum:              336

Satellite: DO-64
Catalog number: 32789
Epoch time:      09113.72875745
Element set:     348
Inclination:      097.9512 deg
RA of node:       178.1811 deg
Eccentricity:    0.0014983
Arg of perigee:   205.5666 deg
Mean anomaly:     154.4806 deg
Mean motion:   14.81671805 rev/day
Decay rate:       1.65e-06 rev/day^2
Epoch rev:            5338
Checksum:              338

Satellite: CO-66
Catalog number: 32791
Epoch time:      09113.70465972
Element set:     330
Inclination:      097.9478 deg
RA of node:       178.0091 deg
Eccentricity:    0.0015199
Arg of perigee:   205.0311 deg
Mean anomaly:     155.0157 deg
Mean motion:   14.81417989 rev/day
Decay rate:       2.37e-06 rev/day^2
Epoch rev:            5334
Checksum:              314

Satellite: RS-30
Catalog number: 32953
Epoch time:      09112.57137011
Element set:    0288
Inclination:      082.4977 deg
RA of node:       291.2031 deg
Eccentricity:    0.0018295
Arg of perigee:   301.8215 deg
Mean anomaly:     058.1081 deg
Mean motion:   12.43000401 rev/day
Decay rate:        1.0e-07 rev/day^2
Epoch rev:           04148
Checksum:              248

/EX





More information about the Keps mailing list